[[{"header":{"parameterUnit":"m.s-1","parameterCategory":1,"la1":30.2991,"la2":30.254,"lo1":-89.0895,"lo2":-89.0444,"dy":0.0017,"dx":0.0017,"nx":28,"ny":28,"refTime":"2023-10-06T03:00:00:Z","depth":0,"parameterNumber":2,"parameterNumberName":"U-component_of_WINDS"},"data":[0,0,0,0,0,0,0,0,0,0,0,0,0,0,0,0,0,0,0,0,0,0,0,0,0,0,0,0,0,0,0,0,0,0,0,0,0,0,0,0,0,0,0,0,0,0,0,0,0,0,0,0,0,0,0,0,0,0,-1.9753,-1.9754,0,-1.9827,-1.9828,-1.9829,-1.9772,-1.977,-1.9767,-1.9765,-1.9843,-1.9847,-1.9851,0,0,0,0,0,0,0,0,0,0,0,0,0,-1.9565,-1.9568,-1.9753,-1.9754,-1.9755,-1.9827,-1.9828,-1.9829,-1.9773,-1.977,-1.9767,-1.9764,-1.9841,-1.9846,-1.9852,0,0,0,0,0,0,0,0,0,0,0,0,0,-1.9644,-1.957,-1.9753,-1.9735,-1.9734,-1.9827,-1.9828,-1.9829,-1.9773,-1.977,-1.9766,-1.9763,-1.984,-1.9846,-1.9852,-1.9966,0,0,-1.9872,-1.9875,0,0,0,0,0,0,0,0,-1.9639,-1.965,-1.9737,-1.9737,-1.9736,-1.9787,-1.979,-1.9875,-1.9774,-1.9759,-1.9765,-1.9761,-1.9827,-1.9834,-1.9857,-1.997,-1.9973,-1.9873,-1.9877,-1.988,-1.9882,0,0,0,0,0,0,0,-1.9634,-1.9647,-1.9782,-1.9738,-1.9738,-1.9725,-1.9732,-1.9806,-1.9813,-1.976,-1.9756,-1.9765,-1.9826,-1.985,-1.9858,-1.9974,-1.9873,-1.9879,-1.9883,-1.9885,-2.0187,-2.0191,0,0,0,0,0,0,-1.963,-1.9643,-1.978,-1.9784,-1.9677,-1.9731,-1.9739,-1.9774,-1.9812,-1.9814,-1.9768,-1.9762,-1.9841,-1.985,-1.986,-1.9998,-1.988,-1.9886,-1.989,-2.0183,-2.0188,-2.0193,0,0,0,0,0,0,-1.9626,-1.9642,-1.9777,-1.9713,-1.9729,-1.9738,-1.9778,-1.9777,-1.9801,-1.9818,-1.9819,-1.9792,-1.9838,-1.9851,-1.9941,-1.9999,-1.9889,-1.9895,-2.0178,-2.0185,-2.0191,-2.0272,0,0,0,0,0,0,-1.9621,-1.9641,-1.9684,-1.9714,-1.9732,-1.9855,-1.9782,-1.9782,-1.9813,-1.9806,-1.984,-1.9843,-1.9837,-1.9931,-1.9947,-2.0006,-1.99,-2.0173,-2.0181,-2.0189,-2.0264,-2.028,-2.0294,0,0,0,0,0,-1.9614,-1.9704,-1.9686,-1.9703,-1.9786,-1.9859,-1.9869,-1.986,-1.9818,-1.9861,-1.9872,-1.9842,-1.9991,-1.9941,-1.9958,-2.0021,-2.017,-2.0179,-2.0188,-2.0258,-2.0277,-2.0294,0,0,0,0,0,0,-1.968,-1.9707,-1.9688,-1.979,-1.9823,-1.9849,-1.9903,-1.9881,-1.9926,-1.9918,-1.9905,-1.9913,-2.0008,-2.0023,-1.9967,-2.0134,-2.0073,-2.0087,-2.012,-2.0139,-2.0154,-2.0148,-1.9905,0,0,0,0,0,-1.9707,-1.9763,-1.9784,-1.9872,-1.9889,-1.9894,-1.9925,-1.9916,-1.9949,-1.9962,-1.998,-2.0014,-2.0068,-2.0104,-2.0155,-2.0266,-2.0274,-2.0318,-2.0333,-2.0345,-2.0357,-2.0418,-2.0438,-2.0223,-2.0223,-2.0223,0,0,-1.9762,-1.9784,-1.982,-1.9886,-1.991,-1.997,-1.9906,-1.9971,-2.0016,-1.9972,-2.0058,-2.0073,-2.011,-2.0211,-2.0256,-2.0227,-2.0418,-2.0357,-2.0366,-2.0371,-2.043,-2.045,-2.0468,-2.0229,-2.0228,-2.0227,0,0,-1.9894,-1.9915,-1.9992,-2.0018,-2.0055,-2.0057,-2.0076,-2.0106,-2.0114,-2.02,-2.0169,-2.0223,-2.0316,-2.0345,-2.0371,-2.0516,-2.049,-2.0533,-2.0611,-2.0671,-2.0688,-2.0703,-2.0756,-2.0775,-2.0545,-2.0545,-2.0545,0,-1.9958,-2.0046,-2.0034,-2.0103,-2.0133,-2.0097,-2.0175,-2.0201,-2.0253,-2.0275,-2.0241,-2.0359,-2.0382,-2.049,-2.0525,-2.0548,-2.057,-2.0529,-2.0687,-2.0702,-2.0715,-2.0766,-2.0785,-2.055,-2.0549,-2.0549,-2.0548,0,-2.0124,-2.0185,-2.0243,-2.0295,-2.0332,-2.0405,-2.0405,-2.0444,-2.0432,-2.0439,-2.0528,-2.0554,-2.061,-2.0635,-2.0623,-2.0742,-2.0723,-2.0688,-2.0627,-2.0741,-2.0788,-2.0807,-2.0557,-2.0555,-2.0554,-2.0553,0,0,-2.0298,-2.0343,-2.0365,-2.0388,-2.0428,-2.0476,-2.0548,-2.0603,-2.0638,-2.0675,-2.0736,-2.0818,-2.0786,-2.0817,-2.0808,-2.0861,-2.0976,-2.082,-2.0821,-2.0849,-2.111,-2.1136,-2.1159,-2.0959,-2.0962,-2.0965,-2.1107,0,-2.0432,-2.0557,-2.0549,-2.0667,-2.0725,-2.0693,-2.0756,-2.0788,-2.0797,-2.0848,-2.0857,-2.0916,-2.0869,-2.0888,-2.0938,-2.0951,-2.1028,-2.0941,-2.1016,-2.1019,-2.1009,-2.1183,-2.1211,-2.1343,-2.1125,-2.1129,-2.1131,0,-2.0604,-2.0649,-2.0773,-2.0805,-2.0829,-2.0886,-2.0937,-2.0986,-2.1022,-2.1025,-2.106,-2.1043,-2.1117,-2.1055,-2.1158,-2.1099,-2.1129,-2.1141,-2.1146,-2.1152,-2.1082,-2.1196,-2.1385,-2.1406,-2.1159,-2.1157,-2.1155,0,-2.072,-2.0811,-2.0897,-2.0918,-2.0958,-2.0999,-2.1018,-2.105,-2.1084,-2.1129,-2.1152,-2.1205,-2.1234,-2.1276,-2.1275,-2.1229,-2.138,-2.1317,-2.1385,-2.1386,-2.1418,-2.1416,-2.1617,-2.1438,-2.1437,-2.1437,-2.1437,0,-2.0871,-2.0948,-2.095,-2.1003,-2.1089,-2.1081,-2.1167,-2.1181,-2.1211,-2.1267,-2.1242,-2.1296,-2.129,-2.1345,-2.1344,-2.1431,-2.1444,-2.1449,-2.1448,-2.1452,-2.1451,-2.1472,-2.1463,-2.1442,-2.1441,-2.144,-2.1439,0,-2.1014,-2.1018,-2.1111,-2.1141,-2.1151,-2.1214,-2.124,-2.1291,-2.1299,-2.137,-2.1387,-2.1398,-2.1461,-2.1464,-2.1536,-2.1536,-2.1642,-2.163,-2.163,-2.1628,-2.1696,-2.169,-2.1917,-2.1947,-2.1748,-2.175,-2.1752,0,-2.111,-2.1169,-2.1207,-2.1243,-2.1264,-2.1322,-2.1357,-2.1352,-2.139,-2.1436,-2.1482,-2.1543,-2.1591,-2.1693,-2.1709,-2.1765,-2.1755,-2.183,-2.1763,-2.1765,-2.1757,-2.1754,-2.176,-2.1844,-2.1846,-2.1848,-2.1849,0,-2.128,-2.128,-2.1331,-2.1385,-2.1428,-2.1469,-2.1508,-2.1539,-2.1538,-2.1582,-2.1646,-2.1684,-2.1758,-2.1819,-2.1874,-2.1894,-2.1873,-2.187,-2.1889,-2.1894,-2.1891,-2.1895,-2.1666,-2.1865,-2.1863,-2.1862,-2.1861,-2.1861,-2.1403,-2.1455,-2.149,-2.1549,-2.1578,-2.1615,-2.1665,-2.1679,-2.1732,-2.1792,-2.1786,-2.1858,-2.1895,-2.1966,-2.199,-2.2047,-2.2021,-2.2048,-2.2055,-2.2062,-2.207,-2.1882,-2.2057,-2.2056,-2.2056,-2.2056,-2.2055,0,-2.1573,-2.1594,-2.1649,-2.1704,-2.1751,-2.1726,-2.1768,-2.1809,-2.1873,-2.1909,-2.1957,-2.2032,-2.2091,-2.2112,-2.217,-2.2212,-2.2204,-2.2228,-2.2225,-2.223,-2.209,-2.2068,-2.2233,-2.2233,-2.2233,-2.2233,-2.2233,-2.2233,-2.1667,-2.1753,-2.1758,-2.1859,-2.188,-2.195,-2.1976,-2.2011,-2.204,-2.2124,-2.2174,-2.2187,-2.2217,-2.2278,-2.2332,-2.2337,-2.236,-2.2388,-2.2389,-2.2257,-2.224,-2.2222,-2.2202,-2.2393,-2.2393,-2.2525,-2.2526,-2.2527]},{"header":{"parameterUnit":"m.s-1","parameterCategory":1,"la1":30.2991,"la2":30.254,"lo1":-89.0895,"lo2":-89.0444,"dy":0.0017,"dx":0.0017,"nx":28,"ny":28,"refTime":"2023-10-06T03:00:00:Z","depth":0,"parameterNumber":3,"parameterNumberName":"V-component_of_WINDS"},"data":[0,0,0,0,0,0,0,0,0,0,0,0,0,0,0,0,0,0,0,0,0,0,0,0,0,0,0,0,0,0,0,0,0,0,0,0,0,0,0,0,0,0,0,0,0,0,0,0,0,0,0,0,0,0,0,0,0,0,-1.0847,-1.0845,0,-1.0704,-1.0703,-1.0701,-1.0635,-1.0635,-1.0635,-1.0636,-1.0486,-1.0482,-1.0478,0,0,0,0,0,0,0,0,0,0,0,0,0,-1.1059,-1.1056,-1.0847,-1.0845,-1.0843,-1.0705,-1.0703,-1.0701,-1.0635,-1.0635,-1.0636,-1.0636,-1.0487,-1.0482,-1.0478,0,0,0,0,0,0,0,0,0,0,0,0,0,-1.0947,-1.1055,-1.0847,-1.0794,-1.0788,-1.0705,-1.0703,-1.07,-1.0635,-1.0635,-1.0636,-1.0636,-1.0489,-1.0483,-1.0477,-1.0435,0,0,-1.0458,-1.0455,0,0,0,0,0,0,0,0,-1.0953,-1.0939,-1.0804,-1.0798,-1.079,-1.0688,-1.0723,-1.0611,-1.0635,-1.0693,-1.0636,-1.0636,-1.0553,-1.0541,-1.0514,-1.0428,-1.0422,-1.0457,-1.0454,-1.0451,-1.0449,0,0,0,0,0,0,0,-1.0961,-1.0945,-1.079,-1.0802,-1.0794,-1.0776,-1.0761,-1.0701,-1.0623,-1.0688,-1.0683,-1.0667,-1.0549,-1.052,-1.051,-1.042,-1.0458,-1.0452,-1.0448,-1.0446,-1.0293,-1.0293,0,0,0,0,0,0,-1.0978,-1.0952,-1.0795,-1.0786,-1.0874,-1.0772,-1.0755,-1.0721,-1.0624,-1.0609,-1.0667,-1.0665,-1.0531,-1.0517,-1.0505,-1.045,-1.0451,-1.0445,-1.0442,-1.0294,-1.0293,-1.0293,0,0,0,0,0,0,-1.0983,-1.0965,-1.0801,-1.0868,-1.0845,-1.0769,-1.0731,-1.0718,-1.0689,-1.0608,-1.0594,-1.0652,-1.053,-1.0513,-1.0453,-1.0444,-1.0443,-1.0437,-1.0294,-1.0294,-1.0293,-1.0341,0,0,0,0,0,0,-1.0989,-1.0967,-1.0951,-1.0868,-1.0842,-1.0753,-1.073,-1.0715,-1.0679,-1.0674,-1.059,-1.0576,-1.0529,-1.0463,-1.0447,-1.0435,-1.0432,-1.0295,-1.0294,-1.0293,-1.0339,-1.0342,-1.0344,0,0,0,0,0,-1.0997,-1.0969,-1.095,-1.0932,-1.082,-1.0752,-1.0738,-1.0685,-1.0678,-1.0661,-1.061,-1.0579,-1.0448,-1.0457,-1.0439,-1.0425,-1.0295,-1.0294,-1.0293,-1.0339,-1.0341,-1.0344,0,0,0,0,0,0,-1.105,-1.0957,-1.0935,-1.0879,-1.0825,-1.0741,-1.0718,-1.0689,-1.0634,-1.0632,-1.0567,-1.0549,-1.0495,-1.0454,-1.0467,-1.0381,-1.0369,-1.0364,-1.0409,-1.0411,-1.0413,-1.0424,-1.0427,0,0,0,0,0,-1.1056,-1.101,-1.093,-1.0888,-1.0862,-1.0795,-1.0763,-1.0728,-1.0668,-1.0644,-1.0588,-1.053,-1.0476,-1.0441,-1.0387,-1.0334,-1.0314,-1.0315,-1.0317,-1.0319,-1.0316,-1.0286,-1.0285,-1.029,-1.029,-1.029,0,0,-1.1066,-1.1009,-1.0984,-1.0897,-1.0851,-1.0804,-1.0776,-1.0726,-1.0691,-1.0636,-1.0576,-1.0534,-1.0465,-1.0409,-1.0381,-1.0373,-1.0311,-1.0318,-1.0321,-1.0316,-1.0285,-1.0284,-1.0284,-1.029,-1.029,-1.029,0,0,-1.1061,-1.1013,-1.0974,-1.0928,-1.0859,-1.0815,-1.0806,-1.0728,-1.0698,-1.0638,-1.0596,-1.0552,-1.046,-1.0413,-1.0377,-1.0357,-1.0326,-1.0341,-1.0351,-1.0322,-1.0322,-1.0321,-1.0314,-1.0312,-1.0338,-1.0338,-1.0338,0,-1.1082,-1.101,-1.0957,-1.091,-1.0874,-1.0825,-1.0784,-1.0742,-1.0658,-1.0633,-1.0626,-1.051,-1.046,-1.0393,-1.0389,-1.0361,-1.0348,-1.0349,-1.0326,-1.0325,-1.0324,-1.0316,-1.0314,-1.034,-1.034,-1.0339,-1.0339,0,-1.104,-1.0991,-1.0967,-1.0889,-1.085,-1.0807,-1.0746,-1.0713,-1.0682,-1.0639,-1.0578,-1.0517,-1.045,-1.0432,-1.0399,-1.036,-1.0357,-1.0339,-1.0325,-1.0326,-1.0318,-1.0315,-1.0343,-1.0342,-1.0342,-1.0341,0,0,-1.1062,-1.0957,-1.0949,-1.0914,-1.0835,-1.0796,-1.0751,-1.0687,-1.066,-1.0604,-1.0564,-1.0488,-1.0472,-1.0431,-1.0393,-1.0368,-1.0357,-1.0353,-1.035,-1.0356,-1.031,-1.0324,-1.0321,-1.0337,-1.0336,-1.0335,-1.0316,0,-1.1045,-1.0964,-1.0915,-1.0853,-1.0807,-1.0761,-1.0721,-1.0669,-1.0628,-1.0582,-1.0536,-1.0484,-1.0466,-1.0441,-1.0414,-1.0364,-1.0347,-1.0365,-1.0298,-1.0297,-1.0317,-1.0317,-1.0331,-1.0315,-1.0312,-1.0311,-1.0311,0,-1.1015,-1.0962,-1.0896,-1.0824,-1.0803,-1.0769,-1.0707,-1.0665,-1.0604,-1.0576,-1.0532,-1.0495,-1.0445,-1.0437,-1.0367,-1.0381,-1.0351,-1.0322,-1.032,-1.0311,-1.0304,-1.0308,-1.0309,-1.0306,-1.0305,-1.0306,-1.0306,0,-1.1038,-1.0951,-1.09,-1.0871,-1.0786,-1.0763,-1.0726,-1.0666,-1.0631,-1.0577,-1.0553,-1.0494,-1.0461,-1.0415,-1.0363,-1.0362,-1.0299,-1.0286,-1.0273,-1.0275,-1.0261,-1.0263,-1.0257,-1.0243,-1.0243,-1.0243,-1.0243,0,-1.1024,-1.0986,-1.091,-1.0878,-1.0834,-1.0779,-1.0736,-1.0695,-1.0642,-1.0602,-1.0558,-1.052,-1.0454,-1.0408,-1.0367,-1.0316,-1.0301,-1.0277,-1.0266,-1.028,-1.0283,-1.0259,-1.0259,-1.0243,-1.0243,-1.0243,-1.0243,0,-1.1042,-1.099,-1.0932,-1.0856,-1.0837,-1.0807,-1.0742,-1.071,-1.0668,-1.0617,-1.0602,-1.0535,-1.048,-1.0424,-1.0348,-1.032,-1.027,-1.0255,-1.0291,-1.0285,-1.0276,-1.0277,-1.0254,-1.0248,-1.0239,-1.0239,-1.0239,0,-1.1037,-1.1006,-1.0929,-1.09,-1.0864,-1.0817,-1.0782,-1.0727,-1.0693,-1.0622,-1.0599,-1.054,-1.049,-1.0404,-1.0348,-1.029,-1.0273,-1.0269,-1.0264,-1.028,-1.0273,-1.0276,-1.0272,-1.0271,-1.0271,-1.0272,-1.0272,0,-1.1033,-1.1009,-1.0961,-1.0905,-1.0865,-1.0817,-1.0768,-1.0746,-1.0681,-1.0645,-1.0588,-1.055,-1.0474,-1.0417,-1.0353,-1.0313,-1.0282,-1.0275,-1.0268,-1.0282,-1.0304,-1.0292,-1.0296,-1.0275,-1.0274,-1.0274,-1.0274,-1.0274,-1.1038,-1.1009,-1.0951,-1.09,-1.0857,-1.0813,-1.078,-1.0734,-1.0687,-1.0622,-1.0592,-1.0536,-1.0477,-1.0388,-1.0349,-1.0304,-1.0295,-1.0286,-1.0284,-1.0283,-1.0286,-1.0313,-1.0292,-1.0292,-1.0292,-1.0292,-1.0291,0,-1.1032,-1.0993,-1.0946,-1.088,-1.084,-1.0816,-1.076,-1.0728,-1.0679,-1.0628,-1.0581,-1.0516,-1.0461,-1.0402,-1.0342,-1.0317,-1.0302,-1.0304,-1.0305,-1.0296,-1.0297,-1.0309,-1.0318,-1.0318,-1.0318,-1.0318,-1.0318,-1.0318,-1.1024,-1.0974,-1.0944,-1.0874,-1.0834,-1.078,-1.075,-1.0709,-1.0668,-1.0599,-1.0553,-1.0516,-1.0461,-1.0398,-1.0346,-1.033,-1.031,-1.0316,-1.0296,-1.0298,-1.0296,-1.0294,-1.0304,-1.0312,-1.0312,-1.0298,-1.0298,-1.0298]}]]